Flag for India Weather past 2 weeks in Kolkata, West Bengal, India

Now
81 °F

Partly cloudy.


Feels Like: 88 °F
Forecast: 79 / 87 °F
Wind: 6 mph from Northeast

Location: Calcutta / Dum Dum

Current Time: Jul 29, 2014 at 3:35:24 AM

Latest Report: Jul 29, 2014 at 2:50 AM


Visibility: 2 mi

Pressure: 29.45 "Hg

Humidity: 94%

Dew point: 79 °F

Location of KolkataLocation

Historic Weather in Kolkata — Graph

°F

Kolkata temperature yesterday

Maximum temperature yesterday: 90 °F (at 1:50 PM)
Minimum temperature yesterday: 81 °F (at 2:50 AM)
Average temperature yesterday: 84 °F

Past Weeks' High & Low Weather Summary

 TemperatureHumidityPressure
High93 °F (Jul 25, 3:20 PM)94% (Jul 14, 3:50 AM)29.65 "Hg (Jul 14, 3:50 AM)
Low79 °F (Jul 22, 2:20 AM)59% (Jul 25, 3:20 PM)29.21 "Hg (Jul 21, 3:20 AM)
Average84 °F87%29.47 "Hg
* Reported Jul 14 1:50 AM — Jul 29 2:20 AM, Kolkata, Weather by CustomWeather, © 2014

Note: Actual official high and low records may vary slightly from our data, if they occured in-between our weather recording intervals... More about our weather records

Advertising

Kolkata weather history for previous 24 hours

 ConditionsComfort  
Time TempWeatherWind HumidityBarometerVisibility
2:20 AM
Jul 29
81 °FPartly cloudy.5 mph94%29.45 "Hg2 mi
1:50 AM82 °FPartly cloudy.6 mph94%29.47 "Hg2 mi
1:20 AM82 °FLight rain. Partly cloudy.6 mph94%29.47 "Hg2 mi
12:50 AM82 °FLight rain. Partly cloudy.6 mph94%29.50 "Hg2 mi
12:20 AM82 °FLight rain. Partly cloudy.6 mph94%29.50 "Hg2 mi
11:50 PM
Jul 28
82 °FLight rain. Partly cloudy.5 mph94%29.50 "Hg2 mi
11:20 PM82 °FPartly cloudy.6 mph94%29.50 "Hg2 mi
10:50 PM82 °FPartly cloudy.6 mph94%29.50 "Hg2 mi
10:20 PM82 °FPartly cloudy.5 mph94%29.50 "Hg2 mi
9:50 PM82 °FPartly cloudy.5 mph94%29.50 "Hg2 mi
9:20 PM82 °FPartly cloudy.6 mph94%29.50 "Hg2 mi
8:50 PM82 °FPartly cloudy.7 mph94%29.47 "Hg2 mi
8:20 PM82 °FPassing clouds.6 mph94%29.47 "Hg2 mi
7:50 PM84 °FPartly cloudy.7 mph89%29.45 "Hg2 mi
7:20 PM84 °FPartly cloudy.5 mph89%29.45 "Hg2 mi
6:50 PM84 °FPartly cloudy.5 mph89%29.45 "Hg2 mi
6:20 PM84 °FBroken clouds.5 mph89%29.45 "Hg2 mi
5:50 PM84 °FBroken clouds.5 mph89%29.42 "Hg2 mi
5:20 PM86 °FBroken clouds.5 mph84%29.45 "Hg2 mi
4:20 PM86 °FBroken clouds.8 mph84%29.45 "Hg2 mi
3:50 PM88 °FBroken clouds.9 mph75%29.45 "Hg2 mi
3:20 PM88 °FBroken clouds.7 mph75%29.45 "Hg2 mi
2:50 PM88 °FBroken clouds.9 mph79%29.47 "Hg2 mi
2:20 PM90 °FBroken clouds.10 mph75%29.47 "Hg2 mi
1:50 PM90 °FBroken clouds.12 mph75%29.47 "Hg2 mi
1:20 PM88 °FBroken clouds.12 mph79%29.50 "Hg2 mi
12:50 PM88 °FBroken clouds.12 mph79%29.50 "Hg2 mi
12:20 PM88 °FBroken clouds.14 mph79%29.50 "Hg2 mi
11:50 AM86 °FBroken clouds.12 mph89%29.50 "Hg2 mi
11:20 AM82 °FLight rain. Broken clouds.9 mph94%29.50 "Hg1 mi
10:50 AM82 °FLight rain. Broken clouds.12 mph94%29.50 "Hg1 mi
10:20 AM82 °FLight rain. Broken clouds.9 mph94%29.53 "Hg1 mi
9:50 AM84 °FLight rain. Broken clouds.7 mph89%29.53 "Hg1 mi
9:20 AM84 °FLight rain. Broken clouds.8 mph89%29.53 "Hg1 mi
8:50 AM84 °FBroken clouds.12 mph89%29.56 "Hg2 mi
7:50 AM84 °FScattered clouds.12 mph89%29.53 "Hg2 mi
7:20 AM82 °FScattered clouds.9 mph89%29.53 "Hg2 mi
6:50 AM82 °FScattered clouds.9 mph89%29.53 "Hg2 mi
6:20 AM82 °FScattered clouds.6 mph89%29.53 "Hg2 mi
5:50 AM81 °FBroken clouds.5 mph94%29.53 "Hg2 mi
4:50 AM81 °FPassing clouds.8 mph94%29.50 "Hg2 mi
4:20 AM81 °FPassing clouds.6 mph94%29.50 "Hg2 mi
3:50 AM81 °FPassing clouds.6 mph94%29.50 "Hg2 mi
3:20 AM81 °FPassing clouds.6 mph94%29.53 "Hg2 mi
Weather by CustomWeather, © 2014

See weather overviewHow to use our weather pages